N9XTN-3 Weather Reports


time (UTC)temp
C
wind
direction
speed
KPH
gust
KPH
rain 1hr
cm
rain 24hr
cm
rain mn
cm
humidity
%
barometer
mb
20260906191017 30 0.0 0.0 0.00 0.00 0.00 73 1014.3
20260906190517 30 0.0 0.0 0.00 0.00 0.00 72 1014.4
20260906190017 30 0.0 1.6 0.00 0.00 0.00 74 1014.4
20260906185537 30 225 1.6 6.4 0.00 0.00 0.00 74 1014.5
20260906185017 30 158 3.2 9.7 0.00 0.00 0.00 75 1014.7
20260906184537 30 158 4.8 9.7 0.00 0.00 0.00 73 1014.6
20260906184017 30 158 3.2 8.0 0.00 0.00 0.00 73 1014.7
20260906183517 30 180 3.2 9.7 0.00 0.00 0.00 73 1014.7
20260906183137 30 158 4.8 14.5 0.00 0.00 0.00 73 1014.7
20260906182517 30 158 3.2 8.0 0.00 0.00 0.00 75 1014.7
20260906182017 30 158 1.6 9.7 0.00 0.00 0.00 73 1014.7
20260906181557 29 158 4.8 11.3 0.00 0.00 0.00 74 1014.8
20260906181017 29 158 3.2 6.4 0.00 0.00 0.00 76 1014.9
20260906180517 29 203 4.8 9.7 0.00 0.00 0.00 77 1015.0
20260906180037 28 135 4.8 9.7 0.00 0.00 0.00 76 1014.9
20260906175517 28 180 4.8 8.0 0.00 0.00 0.00 77 1015.0
20260906175017 28 158 4.8 9.7 0.00 0.00 0.00 78 1015.0
20260906174537 28 158 4.8 9.7 0.00 0.00 0.00 78 1015.0
20260906174017 28 158 6.4 14.5 0.00 0.00 0.00 77 1015.0
20260906173517 28 158 8.0 14.5 0.00 0.00 0.00 77 1015.1
20260906173017 28 135 4.8 11.3 0.00 0.00 0.00 77 1015.1
20260906172517 28 158 8.0 17.7 0.00 0.00 0.00 78 1015.0
20260906172017 28 158 9.7 16.1 0.00 0.00 0.00 78 1015.1
20260906171517 28 158 9.7 16.1 0.00 0.00 0.00 77 1015.2
20260906171017 28 158 9.7 16.1 0.00 0.00 0.00 77 1015.3
20260906170537 28 135 4.8 12.9 0.00 0.00 0.00 80 1015.4
20260906170017 28 135 1.6 8.0 0.00 0.00 0.00 82 1015.4
20260906165517 27 135 3.2 8.0 0.00 0.00 0.00 82 1015.4
20260906165037 27 135 1.6 6.4 0.00 0.00 0.00 84 1015.4
20260906164557 27 90 3.2 11.3 0.00 0.00 0.00 84 1015.3
20260906164017 27 158 1.6 9.7 0.00 0.00 0.00 85 1015.4
20260906163517 26 158 1.6 6.4 0.00 0.00 0.00 86 1015.3
20260906163017 26 158 1.6 8.0 0.00 0.00 0.00 85 1015.4
20260906162517 26 0.0 1.6 0.00 0.00 0.00 86 1015.3
20260906162017 26 0.0 8.0 0.00 0.00 0.00 85 1015.5
20260906161517 25 0.0 3.2 0.00 0.00 0.00 86 1015.4
20260906161017 25 0.0 3.2 0.00 0.00 0.00 86 1015.3
20260906160517 25 113 1.6 8.0 0.00 0.00 0.00 87 1015.4
20260906160017 25 0.0 3.2 0.00 0.00 0.00 88 1015.3
20260906155517 25 0.0 3.2 0.00 0.00 0.00 88 1015.3
20260906155017 25 0.0 3.2 0.00 0.00 0.00 88 1015.5
20260906154517 25 113 1.6 6.4 0.00 0.00 0.00 88 1015.3
20260906154017 25 113 1.6 8.0 0.00 0.00 0.00 88 1015.6
20260906153517 25 0.0 6.4 0.00 0.00 0.00 87 1015.5
20260906153017 25 0.0 3.2 0.00 0.00 0.00 86 1015.7
20260906152517 25 180 1.6 8.0 0.00 0.00 0.00 85 1015.4
20260906152017 25 0.0 6.4 0.00 0.00 0.00 86 1015.4
20260906151517 25 0.0 1.6 0.00 0.00 0.00 86 1015.7
20260906151037 25 0.0 1.6 0.00 0.00 0.00 86 1016.0
20260906150517 25 135 3.2 9.7 0.00 0.00 0.00 86 1016.3
20260906150017 26 158 3.2 11.3 0.00 0.00 0.00 86 1016.0
20260906145517 26 0.0 1.6 0.00 0.00 0.00 86 1016.1
20260906145017 26 203 1.6 6.4 0.00 0.00 0.00 85 1016.2
20260906144517 26 248 4.8 12.9 0.00 0.00 0.00 85 1016.2
20260906144017 26 158 4.8 11.3 0.00 0.00 0.00 85 1016.2
20260906143517 26 248 9.7 20.9 0.00 0.00 0.00 84 1015.7
20260906143037 26 158 6.4 20.9 0.00 0.00 0.00 84 1015.9
20260906142517 26 158 4.8 11.3 0.00 0.00 0.00 84 1015.1
20260906142017 26 135 4.8 11.3 0.00 0.00 0.00 84 1015.1
20260906141517 26 158 4.8 11.3 0.00 0.00 0.00 84 1015.1
20260906141017 26 135 4.8 14.5 0.00 0.00 0.00 84 1015.1
20260906140517 26 135 4.8 12.9 0.00 0.00 0.00 84 1015.1
20260906140017 26 135 3.2 11.3 0.00 0.00 0.00 85 1015.1
20260906135517 26 135 4.8 14.5 0.00 0.00 0.00 85 1015.2
20260906135037 26 135 3.2 11.3 0.00 0.00 0.00 85 1015.2
20260906134517 26 135 4.8 14.5 0.00 0.00 0.00 85 1015.1
20260906134017 26 135 3.2 12.9 0.00 0.00 0.00 85 1015.2
20260906133537 26 135 3.2 12.9 0.00 0.00 0.00 85 1015.1
20260906133017 26 135 3.2 12.9 0.00 0.00 0.00 85 1015.2
20260906132517 26 135 1.6 6.4 0.00 0.00 0.00 86 1015.1
20260906132017 26 135 1.6 8.0 0.00 0.00 0.00 85 1015.1
20260906131517 26 158 1.6 8.0 0.00 0.00 0.00 86 1015.2
20260906131017 25 113 1.6 8.0 0.00 0.00 0.00 86 1015.2
20260906130517 25 135 1.6 9.7 0.00 0.00 0.00 86 1015.2
20260906130017 25 158 1.6 9.7 0.00 0.00 0.00 87 1015.1
20260906125537 25 135 1.6 6.4 0.00 0.00 0.00 87 1015.1
20260906125017 25 113 1.6 6.4 0.00 0.00 0.00 88 1014.9
20260906124517 25 0.0 3.2 0.00 0.00 0.00 88 1015.0
20260906124037 25 0.0 3.2 0.00 0.00 0.00 89 1015.0
20260906123517 25 0.0 6.4 0.00 0.00 0.00 89 1014.8
20260906123037 24 0.0 3.2 0.00 0.00 0.00 89 1014.8
20260906122517 24 0.0 3.2 0.00 0.00 0.00 89 1014.8
20260906122037 24 0.0 1.6 0.00 0.00 0.00 89 1014.8
20260906121517 24 0.0 6.4 0.00 0.00 0.00 89 1014.7
20260906121017 24 0.0 1.6 0.00 0.00 0.00 89 1014.6
20260906120517 24 0.0 1.6 0.00 0.00 0.00 89 1014.5
20260906120017 24 135 1.6 8.0 0.00 0.00 0.00 88 1014.5
20260906115517 24 0.0 1.6 0.00 0.00 0.00 88 1014.4
20260906115017 24 0.0 1.6 0.00 0.00 0.00 88 1014.4
20260906114517 24 0.0 1.6 0.00 0.00 0.00 88 1014.4
20260906114017 24 0.0 1.6 0.00 0.00 0.00 88 1014.5
20260906113537 25 0.0 1.6 0.00 0.00 0.00 88 1014.5
20260906113037 25 0.0 6.4 0.00 0.00 0.00 88 1014.3
20260906112517 24 0.0 6.4 0.00 0.00 0.00 88 1014.1
20260906112017 24 0.0 3.2 0.00 0.00 0.00 88 1014.1
20260906111517 24 0.0 6.4 0.00 0.00 0.00 89 1014.1
20260906111017 24 0.0 1.6 0.00 0.00 0.00 88 1014.2
20260906110537 24 0.0 1.6 0.00 0.00 0.00 88 1014.2
20260906110017 24 0.0 0.0 0.00 0.00 0.00 88 1014.2
20260906105517 24 0.0 0.0 0.00 0.00 0.00 88 1014.3
20260906105017 24 0.0 3.2 0.00 0.00 0.00 88 1014.4
20260906104517 24 0.0 3.2 0.00 0.00 0.00 88 1014.5
20260906104017 24 0.0 3.2 0.00 0.00 0.00 88 1014.5
20260906103517 25 0.0 0.0 0.00 0.00 0.00 87 1014.4
20260906103017 25 0.0 0.0 0.00 0.00 0.00 87 1014.4
20260906102517 25 0.0 0.0 0.00 0.00 0.00 87 1014.2
20260906102017 25 0.0 1.6 0.00 0.00 0.00 87 1014.2
20260906101557 25 0.0 0.0 0.00 0.00 0.00 87 1014.1
20260906101017 25 0.0 0.0 0.00 0.00 0.00 87 1014.0
20260906100517 25 0.0 1.6 0.00 0.00 0.00 87 1014.1
20260906100017 25 0.0 0.0 0.00 0.00 0.00 87 1014.0
20260906095537 25 0.0 0.0 0.00 0.00 0.00 86 1014.0
20260906095017 25 0.0 0.0 0.00 0.00 0.00 86 1013.9
20260906094517 25 0.0 1.6 0.00 0.00 0.00 86 1014.0
20260906094017 25 0.0 0.0 0.00 0.00 0.00 86 1014.0
20260906093517 25 0.0 0.0 0.00 0.00 0.00 86 1014.0
20260906093017 25 0.0 3.2 0.00 0.00 0.00 86 1014.0
20260906092517 25 0.0 0.0 0.00 0.00 0.00 86 1014.0
20260906092017 25 0.0 6.4 0.00 0.00 0.00 86 1014.0
20260906091517 25 0.0 3.2 0.00 0.00 0.00 86 1014.0
20260906091017 25 0.0 1.6 0.00 0.00 0.00 86 1014.1
20260906090517 25 0.0 3.2 0.00 0.00 0.00 86 1014.0
20260906090017 25 0.0 6.4 0.00 0.00 0.00 86 1014.2
20260906085517 25 0.0 1.6 0.00 0.00 0.00 85 1014.4
20260906085017 25 0.0 1.6 0.00 0.00 0.00 85 1014.4
20260906084517 25 0.0 1.6 0.00 0.00 0.00 85 1014.3
20260906084017 25 0.0 0.0 0.00 0.00 0.00 85 1014.3
20260906083517 25 0.0 1.6 0.00 0.00 0.00 85 1014.1
20260906083037 25 0.0 8.0 0.00 0.00 0.00 85 1014.0
20260906082517 25 0.0 3.2 0.00 0.00 0.00 84 1014.0
20260906082017 25 0.0 1.6 0.00 0.00 0.00 84 1014.0
20260906081517 26 0.0 1.6 0.00 0.00 0.00 84 1014.0
20260906081037 26 0.0 6.4 0.00 0.00 0.00 84 1014.0
20260906080517 26 0.0 1.6 0.00 0.00 0.00 83 1014.0
20260906080017 26 0.0 3.2 0.00 0.00 0.00 83 1013.9
20260906075517 26 0.0 3.2 0.00 0.00 0.00 83 1013.9
20260906075017 26 0.0 3.2 0.00 0.00 0.00 83 1013.9
20260906074537 26 0.0 6.4 0.00 0.00 0.00 83 1013.9
20260906074017 26 135 1.6 6.4 0.00 0.00 0.00 82 1013.9
20260906073537 26 135 1.6 8.0 0.00 0.00 0.00 82 1013.9
20260906073057 26 158 4.8 11.3 0.00 0.00 0.00 82 1013.9
20260906072517 26 158 4.8 9.7 0.00 0.00 0.00 82 1013.8
20260906072037 26 135 3.2 11.3 0.00 0.00 0.00 82 1013.6
20260906071517 26 135 3.2 9.7 0.00 0.00 0.00 82 1013.6
20260906071017 26 158 3.2 11.3 0.00 0.00 0.00 82 1013.8
20260906070537 26 158 1.6 6.4 0.00 0.00 0.00 82 1014.0
20260906070017 26 158 3.2 8.0 0.00 0.00 0.00 82 1014.0
20260906065517 26 158 1.6 8.0 0.00 0.00 0.00 82 1014.0
20260906065017 26 135 1.6 8.0 0.00 0.00 0.00 82 1014.0
20260906064537 26 135 1.6 9.7 0.00 0.00 0.00 82 1013.9
20260906064037 26 0.0 3.2 0.00 0.00 0.00 82 1013.9
20260906063517 26 0.0 6.4 0.00 0.00 0.00 82 1014.0
20260906063017 26 0.0 6.4 0.00 0.00 0.00 82 1014.1
20260906062517 26 0.0 6.4 0.00 0.00 0.00 82 1014.1
20260906062017 26 135 1.6 6.4 0.00 0.00 0.00 82 1014.2
20260906061517 26 135 1.6 6.4 0.00 0.00 0.00 82 1014.2
20260906061037 27 0.0 3.2 0.00 0.00 0.00 81 1014.2
20260906060517 27 0.0 3.2 0.00 0.00 0.00 81 1014.2
20260906060017 27 90 1.6 6.4 0.00 0.00 0.00 81 1014.3
20260906055517 27 0.0 3.2 0.00 0.00 0.00 80 1014.2
20260906055017 27 90 1.6 9.7 0.00 0.00 0.00 80 1014.1
20260906054517 27 135 1.6 8.0 0.00 0.00 0.00 80 1014.2
20260906054037 27 113 1.6 8.0 0.00 0.00 0.00 79 1014.3
20260906053517 27 113 1.6 8.0 0.00 0.00 0.00 79 1014.2
20260906053017 27 113 3.2 8.0 0.00 0.00 0.00 79 1014.2
20260906052517 27 90 4.8 12.9 0.00 0.00 0.00 80 1014.2
20260906052017 27 90 3.2 9.7 0.00 0.00 0.00 80 1014.1
20260906051517 27 113 3.2 8.0 0.00 0.00 0.00 81 1014.0
20260906051017 27 113 1.6 8.0 0.00 0.00 0.00 81 1014.0
20260906050517 27 113 3.2 9.7 0.00 0.00 0.00 81 1014.0
20260906050017 27 90 1.6 8.0 0.00 0.00 0.00 81 1013.8
20260906045517 27 113 3.2 8.0 0.00 0.00 0.00 81 1014.0
20260906045037 27 90 4.8 9.7 0.00 0.00 0.00 81 1014.1
20260906044517 27 90 4.8 9.7 0.00 0.00 0.00 82 1014.0
20260906044017 27 113 3.2 9.7 0.00 0.00 0.00 82 1013.9
20260906043517 27 90 3.2 8.0 0.00 0.00 0.00 81 1014.0
20260906043017 27 90 4.8 11.3 0.00 0.00 0.00 82 1014.1
20260906042517 27 90 3.2 8.0 0.00 0.00 0.00 82 1014.1
20260906042017 27 90 3.2 8.0 0.00 0.00 0.00 82 1014.1
20260906041517 27 90 3.2 8.0 0.00 0.00 0.00 82 1014.1
20260906041017 27 90 1.6 6.4 0.00 0.00 0.00 83 1014.1
20260906040517 27 90 3.2 8.0 0.00 0.00 0.00 83 1014.1
20260906040017 27 0.0 3.2 0.00 0.00 0.00 84 1014.3
20260906035517 27 0.0 1.6 0.00 0.00 0.00 84 1014.1
20260906035017 27 90 1.6 4.8 0.00 0.00 0.00 84 1014.1
20260906034517 27 90 1.6 3.2 0.00 0.00 0.00 84 1013.9
20260906034017 27 90 1.6 4.8 0.00 0.00 0.00 83 1013.9
20260906033517 27 90 1.6 8.0 0.00 0.00 0.00 83 1013.9
20260906033017 27 0.0 3.2 0.00 0.00 0.00 83 1013.9
20260906032517 27 0.0 8.0 0.00 0.00 0.00 83 1013.8
20260906032017 27 90 1.6 8.0 0.00 0.00 0.00 83 1013.7
20260906031517 27 90 1.6 3.2 0.00 0.00 0.00 83 1013.7
20260906031017 27 90 1.6 6.4 0.00 0.00 0.00 83 1013.7
20260906030517 27 0.0 4.8 0.00 0.00 0.00 83 1013.7
20260906030037 27 68 3.2 4.8 0.00 0.00 0.00 83 1013.7
20260906025517 27 68 4.8 6.4 0.00 0.00 0.00 82 1013.7
20260906025017 27 68 4.8 8.0 0.00 0.00 0.00 82 1013.4
20260906024517 27 68 4.8 6.4 0.00 0.00 0.00 81 1013.3
20260906024017 27 68 4.8 6.4 0.00 0.00 0.00 81 1013.2
20260906023517 28 90 4.8 9.7 0.00 0.00 0.00 81 1013.1
20260906023017 28 68 6.4 9.7 0.00 0.00 0.00 80 1013.1
20260906022517 28 68 6.4 9.7 0.00 0.00 0.00 80 1013.0
20260906022017 28 68 6.4 8.0 0.00 0.00 0.00 79 1012.8
20260906021517 28 68 6.4 11.3 0.00 0.00 0.00 79 1012.7
20260906021017 28 68 6.4 11.3 0.00 0.00 0.00 78 1012.6
20260906020537 28 90 6.4 11.3 0.00 0.00 0.00 78 1012.6
20260906020017 28 68 6.4 8.0 0.00 0.00 0.00 77 1012.6
20260906015517 29 90 4.8 9.7 0.00 0.00 0.00 76 1012.5
20260906015017 29 90 6.4 9.7 0.00 0.00 0.00 76 1012.5
20260906014517 29 90 4.8 8.0 0.00 0.00 0.00 76 1012.3
20260906014017 29 90 4.8 8.0 0.00 0.00 0.00 76 1012.1
20260906013537 29 90 4.8 8.0 0.00 0.00 0.00 76 1012.1
20260906013037 29 90 6.4 8.0 0.00 0.00 0.00 75 1011.9
20260906012517 30 90 6.4 9.7 0.00 0.00 0.00 74 1011.9
20260906012017 30 90 4.8 8.0 0.00 0.00 0.00 74 1012.0
20260906011517 30 0.0 0.0 0.00 0.00 0.00 74 1012.0
20260906011017 30 0.0 0.0 0.00 0.00 0.00 74 1011.9
20260906010537 30 0.0 0.0 0.00 0.00 0.00 73 1011.9
20260906010017 30 0.0 0.0 0.00 0.00 0.00 73 1011.9
20260906005517 30 0.0 0.0 0.00 0.00 0.00 72 1011.9
20260906005037 31 0.0 0.0 0.00 0.00 0.00 71 1011.9
20260906004517 31 0.0 0.0 0.00 0.00 0.00 70 1011.8
20260906004017 31 0.0 1.6 0.00 0.00 0.00 69 1011.9
20260906003517 31 0.0 1.6 0.00 0.00 0.00 68 1011.8
20260906003017 31 0.0 6.4 0.00 0.00 0.00 68 1011.8
20260906002517 32 90 3.2 8.0 0.00 0.00 0.00 67 1011.8
20260906002037 32 135 3.2 8.0 0.00 0.00 0.00 67 1011.8
20260906001537 32 135 1.6 6.4 0.00 0.00 0.00 66 1011.8
20260906001037 32 135 1.6 6.4 0.00 0.00 0.00 66 1011.8
20260906000517 32 135 3.2 11.3 0.00 0.00 0.00 65 1011.7
20260906000017 32 135 4.8 12.9 0.00 0.00 0.00 65 1011.6
20260905235517 32 135 4.8 12.9 0.00 0.00 0.00 65 1011.6
20260905235017 32 158 3.2 9.7 0.00 0.00 0.00 64 1011.6
20260905234517 32 135 4.8 11.3 0.00 0.00 0.00 63 1011.5
20260905234037 32 135 4.8 12.9 0.00 0.00 0.00 63 1011.5
20260905233517 32 135 4.8 14.5 0.00 0.00 0.00 63 1011.6
20260905233017 33 113 4.8 14.5 0.00 0.00 0.00 62 1011.6
20260905232517 33 135 4.8 9.7 0.00 0.00 0.00 62 1011.6
20260905232037 33 135 6.4 11.3 0.00 0.00 0.00 61 1011.6
20260905231517 33 90 4.8 14.5 0.00 0.00 0.00 62 1011.6
20260905231017 33 135 4.8 12.9 0.00 0.00 0.00 62 1011.7
20260905230517 33 135 3.2 12.9 0.00 0.00 0.00 62 1011.7
20260905230015 33 158 4.8 12.9 0.00 0.00 0.00 60 1011.7
20260905225517 33 135 6.4 14.5 0.00 0.00 0.00 60 1011.8
20260905225057 33 135 4.8 12.9 0.00 0.00 0.00 62 1011.8
20260905224517 33 135 4.8 14.5 0.00 0.00 0.00 61 1011.8
20260905224017 33 135 6.4 16.1 0.00 0.00 0.00 59 1011.8
20260905223538 33 135 4.8 14.5 0.00 0.00 0.00 60 1011.8
20260905223017 33 135 6.4 12.9 0.00 0.00 0.00 60 1011.7
20260905222517 33 135 6.4 14.5 0.00 0.00 0.00 59 1011.6
20260905222017 33 158 6.4 14.5 0.00 0.00 0.00 60 1011.6
20260905221517 33 135 8.0 17.7 0.00 0.00 0.00 59 1011.6
20260905221017 33 135 6.4 16.1 0.00 0.00 0.00 61 1011.5
20260905220537 33 158 12.9 24.1 0.00 0.00 0.00 59 1011.5
20260905220037 33 158 8.0 16.1 0.00 0.00 0.00 60 1011.5
20260905215517 33 135 4.8 12.9 0.00 0.00 0.00 59 1011.5
20260905215016 33 158 8.0 14.5 0.00 0.00 0.00 61 1011.6
20260905214517 33 158 8.0 19.3 0.00 0.00 0.00 59 1011.5
20260905214037 33 113 8.0 17.7 0.00 0.00 0.00 58 1011.5
20260905213517 33 135 8.0 16.1 0.00 0.00 0.00 57 1011.6
20260905213037 33 135 8.0 14.5 0.00 0.00 0.00 56 1011.7
20260905212517 33 135 8.0 19.3 0.00 0.00 0.00 55 1011.8
20260905212017 33 158 6.4 19.3 0.00 0.00 0.00 58 1011.9
20260905211517 33 135 6.4 17.7 0.00 0.00 0.00 57 1012.0
20260905211118 33 113 6.4 16.1 0.00 0.00 0.00 58 1012.1
20260905210517 33 135 8.0 16.1 0.00 0.00 0.00 57 1012.2
20260905210037 33 135 6.4 17.7 0.00 0.00 0.00 57 1012.3
20260905205517 33 135 4.8 12.9 0.00 0.00 0.00 59 1012.3
20260905205057 33 113 4.8 12.9 0.00 0.00 0.00 59 1012.4
20260905204517 33 113 8.0 16.1 0.00 0.00 0.00 59 1012.5
20260905204017 32 90 6.4 19.3 0.00 0.00 0.00 57 1012.5
20260905203517 32 113 6.4 17.7 0.00 0.00 0.00 60 1012.5
20260905203017 32 113 8.0 20.9 0.00 0.00 0.00 60 1012.6
20260905202517 32 135 6.4 16.1 0.00 0.00 0.00 62 1012.7
20260905202017 32 90 6.4 22.5 0.00 0.00 0.00 61 1013.0
20260905201517 32 68 9.7 22.5 0.00 0.00 0.00 61 1013.1
20260905201017 32 90 12.9 24.1 0.00 0.00 0.00 58 1013.2
20260905200517 32 90 8.0 16.1 0.00 0.00 0.00 58 1013.2
20260905200017 32 90 11.3 22.5 0.00 0.00 0.00 58 1013.5
20260905195517 32 90 9.7 24.1 0.00 0.00 0.00 59 1013.7
20260905195017 32 68 11.3 20.9 0.00 0.00 0.00 59 1013.9
20260905194517 32 90 8.0 20.9 0.00 0.00 0.00 60 1014.0
20260905194017 31 113 9.7 20.9 0.00 0.00 0.00 62 1014.1
20260905193516 31 113 8.0 19.3 0.00 0.00 0.00 64 1014.1
20260905193018 31 113 8.0 19.3 0.00 0.00 0.00 65 1014.2
20260905192517 31 68 14.5 27.4 0.00 0.00 0.00 63 1014.3
20260905192017 31 68 14.5 27.4 0.00 0.00 0.00 63 1014.4
20260905191517 31 68 11.3 24.1 0.00 0.00 0.00 63 1014.4